GW5721 Weather Reports


time (UTC)temp
C
wind
direction
speed
KPH
gust
KPH
rain 1hr
cm
rain 24hr
cm
rain mn
cm
humidity
%
barometer
mb
20260506003620 11 42 6.4 6.4 0.00 0.00 0.00 74 1009.2
20260506003116 11 46 3.2 4.8 0.00 0.00 0.00 73 1009.4
20260506002612 11 53 4.8 6.4 0.00 0.00 0.00 73 1009.5
20260506002108 11 359 4.8 9.7 0.00 0.00 0.00 73 1009.4
20260506001604 11 62 4.8 6.4 0.00 0.00 0.00 73 1009.4
20260506001102 11 68 6.4 9.7 0.00 0.00 0.00 72 1008.8
20260506000559 11 353 9.7 14.5 0.00 0.00 0.00 72 1008.6
20260506000056 11 0 11.3 14.5 0.00 0.00 0.00 71 1009.1
20260505235554 11 17 11.3 16.1 0.00 0.00 0.00 71 1008.9
20260505235051 11 48 8.0 12.9 0.00 0.00 0.00 71 1009.2
20260505234548 11 25 9.7 12.9 0.00 0.00 0.00 69 1009.1
20260505234044 11 10 9.7 11.3 0.00 0.00 0.00 70 1009.2
20260505233542 11 25 8.0 11.3 0.00 0.00 0.00 69 1009.1
20260505233040 11 23 9.7 14.5 0.00 0.00 0.00 70 1009.1
20260505232537 11 35 8.0 14.5 0.00 0.00 0.00 70 1008.9
20260505232035 11 19 6.4 11.3 0.00 0.00 0.00 70 1008.8
20260505231531 12 33 6.4 11.3 0.00 0.00 0.00 69 1008.8
20260505231030 12 41 4.8 9.7 0.00 0.00 0.00 69 1008.9
20260505230527 12 326 4.8 9.7 0.00 0.00 0.00 69 1008.9
20260505230024 12 285 6.4 9.7 0.00 0.00 0.00 69 1008.5
20260505225520 12 354 6.4 6.4 0.00 0.00 0.00 70 1008.4
20260505225016 12 1 6.4 6.4 0.00 0.00 0.00 69 1008.2
20260505224514 12 13 4.8 4.8 0.00 0.00 0.00 70 1008.1
20260505224011 12 358 11.3 14.5 0.00 0.00 0.00 68 1007.9
20260505223508 12 10 3.2 4.8 0.00 0.00 0.00 69 1007.9
20260505223004 12 309 8.0 9.7 0.00 0.00 0.00 67 1007.8
20260505222500 12 21 3.2 3.2 0.00 0.00 0.00 67 1007.9
20260505221956 12 21 4.8 9.7 0.00 0.00 0.00 68 1007.8
20260505221453 12 296 8.0 14.5 0.00 0.00 0.00 68 1007.7
20260505220950 12 269 9.7 14.5 0.00 0.00 0.00 69 1007.6
20260505220447 12 23 14.5 22.5 0.00 0.00 0.00 67 1007.4
20260505215945 12 25 4.8 9.7 0.00 0.00 0.00 69 1007.4
20260505215443 12 52 1.6 3.2 0.00 0.00 0.00 69 1007.4
20260505214940 12 253 4.8 4.8 0.00 0.00 0.00 68 1007.6
20260505214438 12 31 6.4 12.9 0.00 0.00 0.00 70 1007.7
20260505213935 12 3 6.4 9.7 0.00 0.00 0.00 70 1007.4
20260505213433 12 29 12.9 14.5 0.00 0.00 0.00 70 1007.6
20260505212929 12 351 4.8 6.4 0.00 0.00 0.00 71 1007.8
20260505212426 12 352 9.7 11.3 0.00 0.00 0.00 70 1007.8
20260505211922 13 8 8.0 11.3 0.00 0.00 0.00 70 1007.7
20260505211420 12 344 9.7 14.5 0.00 0.00 0.00 70 1007.5
20260505210916 12 28 6.4 9.7 0.00 0.00 0.00 72 1007.7
20260505210414 12 39 4.8 9.7 0.00 0.00 0.00 72 1007.2
20260505205910 12 12 9.7 12.9 0.00 0.00 0.00 71 1007.0
20260505205409 12 351 6.4 9.7 0.00 0.00 0.00 72 1007.0
20260505204905 12 18 4.8 6.4 0.00 0.00 0.00 72 1007.1
20260505204403 12 5 6.4 6.4 0.00 0.00 0.00 73 1007.2
20260505203900 12 47 3.2 6.4 0.00 0.00 0.00 73 1007.3
20260505203356 12 11 6.4 6.4 0.00 0.00 0.00 72 1007.3
20260505202853 12 294 6.4 6.4 0.00 0.00 0.00 74 1007.7
20260505202349 12 63 3.2 4.8 0.00 0.00 0.00 74 1007.7
20260505201846 12 73 8.0 11.3 0.00 0.00 0.00 75 1007.1
20260505201343 12 340 11.3 24.1 0.00 0.00 0.00 74 1007.3
20260505200841 13 330 6.4 9.7 0.00 0.00 0.00 74 1007.1
20260505200338 13 31 6.4 9.7 0.00 0.00 0.00 73 1007.0
20260505195833 13 342 6.4 11.3 0.00 0.00 0.00 73 1007.0
20260505195331 13 30 9.7 14.5 0.00 0.00 0.00 73 1007.1
20260505194828 13 71 6.4 11.3 0.00 0.00 0.00 73 1007.0
20260505194325 13 322 9.7 14.5 0.00 0.00 0.00 73 1007.1
20260505193820 13 46 3.2 4.8 0.00 0.00 0.00 75 1007.2
20260505193318 13 38 6.4 9.7 0.00 0.00 0.00 74 1007.1
20260505192816 13 60 8.0 11.3 0.00 0.00 0.00 75 1007.0
20260505192314 13 44 3.2 3.2 0.00 0.00 0.00 76 1007.0
20260505191812 13 351 8.0 12.9 0.00 0.00 0.00 75 1006.8
20260505191310 13 339 8.0 12.9 0.00 0.00 0.00 75 1006.7
20260505190806 13 40 6.4 9.7 0.00 0.00 0.00 76 1006.6
20260505190301 13 310 9.7 16.1 0.00 0.00 0.00 76 1006.5
20260505185758 13 267 4.8 9.7 0.00 0.00 0.00 76 1006.6
20260505185254 13 26 1.6 3.2 0.00 0.00 0.00 77 1006.5
20260505184750 13 20 3.2 6.4 0.00 0.00 0.00 77 1006.4
20260505184248 13 284 14.5 17.7 0.00 0.00 0.00 78 1006.3
20260505183744 13 48 3.2 3.2 0.00 0.00 0.00 78 1006.3
20260505183242 13 225 4.8 6.4 0.00 0.00 0.00 78 1006.4
20260505182738 13 356 16.1 25.7 0.00 0.00 0.00 78 1006.4
20260505182235 13 6 9.7 14.5 0.00 0.00 0.00 78 1006.2
20260505181731 13 13 3.2 4.8 0.00 0.00 0.00 78 1006.5
20260505181229 13 73 6.4 9.7 0.00 0.00 0.00 79 1006.5
20260505180725 13 19 4.8 4.8 0.00 0.00 0.00 80 1006.4
20260505180222 13 0 4.8 6.4 0.00 0.00 0.00 80 1006.5
20260505175718 13 17 8.0 12.9 0.00 0.00 0.00 80 1006.3
20260505175215 13 296 3.2 4.8 0.00 0.00 0.00 81 1005.9
20260505174711 13 316 8.0 12.9 0.00 0.00 0.00 81 1005.8
20260505174208 13 5 9.7 17.7 0.00 0.00 0.00 81 1005.5
20260505173704 13 28 8.0 12.9 0.00 0.00 0.00 81 1005.3
20260505173201 13 192 4.8 6.4 0.00 0.00 0.00 81 1005.6
20260505172659 13 31 6.4 11.3 0.00 0.00 0.00 81 1005.4
20260505172155 13 323 6.4 9.7 0.00 0.00 0.00 81 1005.4
20260505171655 13 331 9.7 12.9 0.00 0.00 0.00 81 1005.4
20260505171152 13 50 3.2 4.8 0.00 0.00 0.00 82 1005.5
20260505170649 14 58 3.2 3.2 0.00 0.00 0.00 82 1005.5
20260505170146 13 38 3.2 4.8 0.00 0.00 0.00 83 1005.5
20260505165646 13 291 4.8 6.4 0.00 0.00 0.00 82 1005.2
20260505165143 14 25 8.0 9.7 0.00 0.00 0.00 83 1004.9
20260505164638 14 0 11.3 16.1 0.00 0.00 0.00 82 1004.9
20260505164136 14 53 3.2 6.4 0.00 0.00 0.00 82 1004.8
20260505163634 14 58 6.4 6.4 0.00 0.00 0.00 82 1004.9
20260505163131 14 338 16.1 17.7 0.00 0.00 0.00 82 1004.6
20260505162628 14 55 1.6 3.2 0.00 0.00 0.00 83 1004.9
20260505162126 15 323 11.3 14.5 0.00 0.00 0.00 82 1004.5
20260505161623 15 353 6.4 11.3 0.00 0.00 0.00 82 1004.3
20260505161120 15 350 9.7 16.1 0.00 0.00 0.00 81 1004.7
20260505160618 15 347 11.3 16.1 0.00 0.00 0.00 81 1004.6
20260505160115 15 300 6.4 12.9 0.00 0.00 0.00 81 1004.2
20260505153055 17 313 9.7 20.9 0.00 0.00 0.00 81 1003.7
20260505152551 17 230 6.4 6.4 0.00 0.00 0.00 79 1003.7
20260505152047 18 74 3.2 3.2 0.00 0.00 0.00 78 1003.4
20260505151547 20 317 11.3 17.7 0.00 0.00 0.00 79 1003.2
20260505151046 20 34 3.2 4.8 0.00 0.00 0.00 78 1003.2
20260505150542 20 351 8.0 12.9 0.00 0.00 0.00 77 1002.9
20260505140507 21 72 0.0 1.6 0.00 0.00 0.00 78 1002.4
20260505124920 20 87 3.2 3.2 0.00 0.00 0.00 79 1002.5
20260505124417 20 41 1.6 3.2 0.00 0.00 0.00 79 1002.7
20260505123913 19 53 1.6 1.6 0.00 0.00 0.00 79 1002.6
20260505123410 19 77 3.2 4.8 0.00 0.00 0.00 79 1002.5
20260505122905 19 51 1.6 1.6 0.00 0.00 0.00 79 1002.5
20260505122403 19 61 3.2 3.2 0.00 0.00 0.00 79 1002.5
20260505121900 19 36 0.0 1.6 0.00 0.00 0.00 80 1002.4
20260505121357 19 41 3.2 3.2 0.00 0.00 0.00 79 1002.0
20260505120853 19 40 3.2 3.2 0.00 0.00 0.00 79 1002.1
20260505120349 19 341 3.2 4.8 0.00 0.00 0.00 79 1002.2
20260505115848 19 57 1.6 1.6 0.00 0.00 0.00 79 1002.2
20260505115345 19 39 3.2 4.8 0.00 0.00 0.00 79 1002.3
20260505114843 19 46 3.2 3.2 0.00 0.00 0.00 80 1002.2
20260505114339 19 41 1.6 1.6 0.00 0.00 0.00 80 1002.1
20260505113835 19 42 3.2 4.8 0.00 0.00 0.00 80 1002.3
20260505113332 19 41 3.2 3.2 0.00 0.00 0.00 80 1002.1
20260505112828 19 36 3.2 3.2 0.00 0.00 0.00 80 1002.1
20260505112326 19 41 3.2 4.8 0.00 0.00 0.00 80 1002.0
20260505111821 19 41 3.2 3.2 0.00 0.00 0.00 80 1002.1
20260505111317 19 27 3.2 4.8 0.00 0.00 0.00 79 1001.9
20260505110813 19 40 3.2 3.2 0.00 0.00 0.00 79 1001.8
20260505110311 19 37 0.0 1.6 0.00 0.00 0.00 79 1001.8
20260505101745 19 43 3.2 3.2 0.00 0.00 0.00 79 1001.1
20260505101240 19 47 4.8 4.8 0.00 0.00 0.00 79 1001.0
20260505100737 19 31 3.2 3.2 0.00 0.00 0.00 78 1000.9
20260505100234 19 49 1.6 3.2 0.00 0.00 0.00 79 1001.0
20260505095729 19 43 1.6 3.2 0.00 0.00 0.00 78 1000.8
20260505095228 19 55 1.6 3.2 0.00 0.00 0.00 78 1000.7
20260505094723 20 60 1.6 1.6 0.00 0.00 0.00 78 1000.8
20260505094219 20 52 1.6 1.6 0.00 0.00 0.00 77 1000.7
20260505093716 20 49 3.2 6.4 0.00 0.00 0.00 77 1000.9
20260505093214 20 30 3.2 3.2 0.00 0.00 0.00 76 1000.6
20260505092710 20 41 1.6 3.2 0.00 0.00 0.00 76 1000.9
20260505092209 20 48 1.6 1.6 0.00 0.00 0.00 76 1000.7
20260505091705 20 68 1.6 3.2 0.00 0.00 0.00 76 1000.8
20260505091203 20 50 1.6 1.6 0.00 0.00 0.00 76 1000.8
20260505090701 20 57 0.0 0.0 0.00 0.00 0.00 76 1001.0
20260505090159 20 58 0.0 0.0 0.00 0.00 0.00 75 1001.0
20260505085656 20 58 0.0 1.6 0.00 0.00 0.00 75 1000.9
20260505085154 20 57 0.0 0.0 0.00 0.00 0.00 75 1001.0
20260505084651 20 46 1.6 3.2 0.00 0.00 0.00 75 1001.1
20260505084150 20 57 0.0 0.0 0.00 0.00 0.00 75 1001.0
20260505083647 20 56 0.0 1.6 0.00 0.00 0.00 74 1000.9
20260505083143 20 42 1.6 3.2 0.00 0.00 0.00 74 1001.2
20260505082639 20 54 1.6 1.6 0.00 0.00 0.00 74 1001.0
20260505082136 20 55 3.2 4.8 0.00 0.00 0.00 74 1001.0
20260505081632 20 60 0.0 1.6 0.00 0.00 0.00 74 1001.2
20260505081130 20 49 0.0 0.0 0.00 0.00 0.00 74 1001.2
20260505080626 20 46 1.6 1.6 0.00 0.00 0.00 74 1001.1
20260505080123 20 58 1.6 1.6 0.00 0.00 0.00 74 1001.2
20260505075619 20 45 0.0 1.6 0.00 0.00 0.00 73 1001.2
20260505075116 20 45 1.6 1.6 0.00 0.00 0.00 74 1001.3
20260505074613 20 44 1.6 3.2 0.00 0.00 0.00 73 1001.5
20260505074110 20 48 0.0 1.6 0.00 0.00 0.00 73 1001.5
20260505073607 20 52 0.0 0.0 0.00 0.00 0.00 74 1001.5
20260505073106 20 50 3.2 3.2 0.00 0.00 0.00 73 1001.6
20260505072601 20 44 1.6 1.6 0.00 0.00 0.00 73 1001.8
20260505072058 20 34 3.2 3.2 0.00 0.00 0.00 73 1001.8
20260505071553 20 42 1.6 3.2 0.00 0.00 0.00 74 1001.9
20260505071051 20 41 3.2 4.8 0.00 0.00 0.00 74 1002.0
20260505070548 20 43 1.6 1.6 0.00 0.00 0.00 74 1002.0
20260505070044 21 44 3.2 3.2 0.00 0.00 0.00 74 1001.9
20260505065540 20 41 1.6 1.6 0.00 0.00 0.00 74 1002.0
20260505065037 20 43 1.6 1.6 0.00 0.00 0.00 74 1002.1
20260505064534 20 42 3.2 3.2 0.00 0.00 0.00 74 1002.2
20260505064032 20 39 1.6 1.6 0.00 0.00 0.00 75 1002.2
20260505063529 20 27 0.0 0.0 0.00 0.00 0.00 75 1002.4
20260505063025 20 38 0.0 0.0 0.00 0.00 0.00 75 1002.4
20260505062522 20 42 0.0 1.6 0.00 0.00 0.00 74 1002.2
20260505062020 20 32 1.6 1.6 0.00 0.00 0.00 73 1002.1
20260505061517 21 54 0.0 0.0 0.00 0.00 0.00 73 1001.9
20260505061015 21 55 0.0 0.0 0.00 0.00 0.00 72 1001.5
20260505060512 20 92 0.0 3.2 0.00 0.00 0.00 73 1001.5
20260505060008 20 67 0.0 0.0 0.00 0.00 0.00 72 1001.3
20260505055504 21 67 0.0 0.0 0.00 0.00 0.00 72 1001.1
20260505055000 21 68 1.6 1.6 0.00 0.00 0.00 71 1001.3
20260505054458 21 86 1.6 1.6 0.00 0.00 0.00 71 1001.4
20260505053956 21 62 1.6 1.6 0.00 0.00 0.00 71 1001.3
20260505053453 21 79 1.6 3.2 0.00 0.00 0.00 71 1001.3
20260505052949 21 72 0.0 0.0 0.00 0.00 0.00 71 1001.5
20260505052447 21 97 3.2 3.2 0.00 0.00 0.00 70 1001.6
20260505051944 21 92 1.6 3.2 0.00 0.00 0.00 70 1001.7
20260505051440 21 140 3.2 3.2 0.00 0.00 0.00 69 1002.0
20260505050939 21 67 1.6 1.6 0.00 0.00 0.00 69 1001.8
20260505050437 21 83 3.2 3.2 0.00 0.00 0.00 69 1001.7
20260505041404 21 130 1.6 3.2 0.00 0.00 0.00 66 1001.5
20260505040901 21 81 4.8 6.4 0.00 0.00 0.00 66 1001.6
20260505040359 21 96 3.2 3.2 0.00 0.00 0.00 66 1001.8
20260505035855 21 91 3.2 3.2 0.00 0.00 0.00 66 1001.8
20260505035351 21 81 1.6 3.2 0.00 0.00 0.00 66 1002.0
20260505034849 21 88 6.4 9.7 0.00 0.00 0.00 66 1002.1
20260505034345 21 116 1.6 1.6 0.00 0.00 0.00 67 1002.0
20260505033842 21 11 1.6 1.6 0.00 0.00 0.00 67 1001.8
20260505033339 21 63 1.6 3.2 0.00 0.00 0.00 66 1002.4
20260505032838 21 91 1.6 4.8 0.00 0.00 0.00 65 1002.2
20260505032334 21 83 3.2 3.2 0.00 0.00 0.00 64 1002.1
20260505031831 21 125 3.2 4.8 0.00 0.00 0.00 64 1002.4
20260505031327 21 90 1.6 1.6 0.00 0.00 0.00 64 1002.4
20260505030825 21 78 1.6 1.6 0.00 0.00 0.00 63 1002.6
20260505030321 21 70 1.6 1.6 0.00 0.00 0.00 63 1002.5
20260505025816 21 88 4.8 4.8 0.00 0.00 0.00 63 1002.4
20260505025314 21 63 3.2 3.2 0.00 0.00 0.00 63 1002.5
20260505024812 21 23 1.6 4.8 0.00 0.00 0.00 63 1002.5
20260505024309 21 91 1.6 3.2 0.00 0.00 0.00 63 1002.8
20260505023807 21 81 1.6 1.6 0.00 0.00 0.00 63 1002.8
20260505023303 21 91 1.6 1.6 0.00 0.00 0.00 62 1002.9
20260505022801 21 69 1.6 3.2 0.00 0.00 0.00 62 1002.7
20260505022258 22 95 3.2 3.2 0.00 0.00 0.00 62 1002.8
20260505021754 22 74 1.6 3.2 0.00 0.00 0.00 62 1002.5
20260505021251 22 71 1.6 3.2 0.00 0.00 0.00 62 1002.6
20260505020747 22 81 1.6 1.6 0.00 0.00 0.00 62 1002.7
20260505020242 22 77 1.6 1.6 0.00 0.00 0.00 62 1002.7
20260505015740 22 96 1.6 3.2 0.00 0.00 0.00 62 1002.6
20260505015237 22 58 1.6 1.6 0.00 0.00 0.00 62 1002.9
20260505014734 22 85 3.2 3.2 0.00 0.00 0.00 62 1002.7
20260505014231 22 69 1.6 3.2 0.00 0.00 0.00 61 1002.4
20260505013728 22 73 0.0 1.6 0.00 0.00 0.00 61 1002.5
20260505013225 22 91 3.2 3.2 0.00 0.00 0.00 61 1002.6
20260505012723 22 68 1.6 1.6 0.00 0.00 0.00 60 1002.6
20260505012220 23 94 1.6 1.6 0.00 0.00 0.00 61 1002.6
20260505011716 23 101 3.2 3.2 0.00 0.00 0.00 60 1002.4
20260505011213 23 82 1.6 1.6 0.00 0.00 0.00 60 1002.7
20260505010708 23 41 6.4 9.7 0.00 0.00 0.00 60 1002.5
20260505010205 23 55 3.2 4.8 0.00 0.00 0.00 59 1002.4
20260505005701 23 90 3.2 3.2 0.00 0.00 0.00 59 1002.5
20260505005159 23 53 3.2 4.8 0.00 0.00 0.00 58 1002.3
20260505004656 23 83 1.6 3.2 0.00 0.00 0.00 58 1002.5
20260505004152 23 53 6.4 6.4 0.00 0.00 0.00 57 1002.4